Location: Asheville, NC
(35.6000°N, 82.5500°W)
Time: 02:51:11
(UTC-05:00)

Vanguard 1 Rocket - Pass Details

Date: 12 February 2018
Orbit: 655 x 4222 km, 34.3° (Epoch: 18 February)

Event Time Altitude Azimuth Distance (km) Brightness Sun altitude
Rises 07:56:12 0° 288° (WNW) 7,819 11.5 6.1°
Reaches altitude 10° 08:02:41 10° 282° (WNW) 6,304 11.1 7.3°
Maximum altitude 08:18:05 37° 224° (SW) 3,013 10.0 10.2°
Drops below altitude 10° 08:26:47 10° 160° (SSE) 3,572 11.3 11.8°
Sets 08:29:22 0° 151° (SSE) 4,210 11.8 12.3°
